This is the latest recevied weather packets stored in our database for station/object W6MAF. If no packets are shown the sender has not sent any weather packets the latest 10 day(s).
| Time | Temp. | Humidity | Pressure | Rain* | Wind** | Luminosity | Snow |
|---|---|---|---|---|---|---|---|
| 1777235729 | 11.67° C | 36% | - | 0 mm | 5.81 m/s, 210° | - | - |
| 1777235431 | 11.67° C | 35% | - | 0 mm | 8.94 m/s, 195° | - | - |
| 1777235133 | 11.67° C | 35% | - | 0 mm | 11.18 m/s, 201° | - | - |
| 1777234894 | 11.67° C | 36% | - | 0 mm | 8.05 m/s, 198° | - | - |
| 1777234836 | 11.67° C | 36% | - | 0 mm | 8.05 m/s, 198° | - | - |
| 1777234535 | 11.67° C | 36% | - | 0 mm | 10.73 m/s, 217° | - | - |
| 1777234237 | 11.67° C | 36% | - | 0 mm | 6.71 m/s, 191° | - | - |
| 1777233940 | 11.67° C | 35% | - | 0 mm | 9.39 m/s, 198° | - | - |
| 1777233642 | 11.67° C | 36% | - | 0 mm | 8.05 m/s, 198° | - | - |
| 1777233345 | 11.67° C | 36% | - | 0 mm | 8.05 m/s, 208° | - | - |
| 1777233047 | 11.67° C | 38% | - | 0 mm | 7.15 m/s, 201° | - | - |
| 1777232746 | 11.11° C | 39% | - | 0 mm | 6.71 m/s, 207° | - | - |
| 1777232448 | 11.11° C | 38% | - | 0 mm | 7.15 m/s, 190° | - | - |
| 1777232150 | 11.11° C | 38% | - | 0 mm | 9.39 m/s, 207° | - | - |
| 1777231853 | 11.11° C | 38% | - | 0 mm | 9.39 m/s, 200° | - | - |
| 1777231556 | 11.11° C | 39% | - | 0 mm | 7.6 m/s, 222° | - | - |
| 1777231258 | 11.11° C | 39% | - | 0 mm | 8.05 m/s, 204° | - | - |
| 1777230957 | 11.11° C | 39% | - | 0 mm | 7.6 m/s, 212° | - | - |
| 1777230659 | 11.11° C | 41% | - | 0 mm | 8.05 m/s, 191° | - | - |
| 1777230361 | 11.11° C | 41% | - | 0 mm | 7.15 m/s, 200° | - | - |
| 1777230064 | 11.11° C | 41% | - | 0 mm | 5.36 m/s, 197° | - | - |
| 1777229766 | 11.11° C | 41% | - | 0 mm | 7.15 m/s, 207° | - | - |
| 1777229469 | 10.56° C | 41% | - | 0 mm | 9.39 m/s, 211° | - | - |
| 1777229168 | 11.11° C | 42% | - | 0 mm | 7.15 m/s, 190° | - | - |
| 1777228870 | 10.56° C | 43% | - | 0 mm | 6.71 m/s, 197° | - | - |
* Rain latest hour (hover to see other rain measurements)
** Current wind speed in m/s (hover to see current wind gust speed)